[[{"header":{"parameterUnit":"m.s-1","parameterCategory":1,"la1":30.2991,"la2":30.254,"lo1":-89.0895,"lo2":-89.0444,"dy":0.0017,"dx":0.0017,"nx":28,"ny":28,"refTime":"2025-06-01T09:00:00:Z","depth":0,"parameterNumber":2,"parameterNumberName":"U-component_of_WINDS"},"data":[0,0,0,0,0,0,0,0,0,0,0,0,0,0,0,0,0,0,0,0,0,0,0,0,0,0,0,0,0,0,0,0,0,0,0,0,0,0,0,0,0,0,0,0,0,0,0,0,0,0,0,0,0,0,0,0,0,0,-3.5395,-3.5396,0,-3.5503,-3.5504,-3.5505,-3.5451,-3.5448,-3.5445,-3.5442,-3.5552,-3.5558,-3.5563,0,0,0,0,0,0,0,0,0,0,0,0,0,-3.5141,-3.5146,-3.5395,-3.5396,-3.5398,-3.5503,-3.5504,-3.5506,-3.5451,-3.5448,-3.5444,-3.5441,-3.555,-3.5557,-3.5564,0,0,0,0,0,0,0,0,0,0,0,0,0,-3.525,-3.5147,-3.5395,-3.5383,-3.5383,-3.5502,-3.5504,-3.5506,-3.5452,-3.5447,-3.5443,-3.5439,-3.5548,-3.5556,-3.5564,-3.5701,0,0,-3.559,-3.5594,0,0,0,0,0,0,0,0,-3.5244,-3.526,-3.5383,-3.5384,-3.5384,-3.5459,-3.5455,-3.5571,-3.5453,-3.5426,-3.5442,-3.5437,-3.5525,-3.5535,-3.5564,-3.5706,-3.5711,-3.5591,-3.5596,-3.5599,-3.5602,0,0,0,0,0,0,0,-3.5237,-3.5255,-3.5438,-3.5385,-3.5386,-3.5372,-3.5383,-3.5477,-3.5498,-3.5428,-3.5424,-3.5438,-3.5524,-3.5556,-3.5566,-3.5713,-3.5591,-3.5598,-3.5603,-3.5606,-3.5971,-3.5975,0,0,0,0,0,0,-3.523,-3.5249,-3.5434,-3.5441,-3.5302,-3.538,-3.5392,-3.5439,-3.5496,-3.5501,-3.5441,-3.5435,-3.5544,-3.5557,-3.557,-3.5732,-3.5599,-3.5607,-3.5612,-3.5966,-3.5972,-3.5977,0,0,0,0,0,0,-3.5224,-3.5247,-3.543,-3.5344,-3.5366,-3.5389,-3.5442,-3.5444,-3.5476,-3.5507,-3.551,-3.547,-3.5541,-3.5558,-3.5669,-3.5736,-3.5611,-3.5619,-3.5961,-3.5968,-3.5974,-3.606,0,0,0,0,0,0,-3.5217,-3.5245,-3.5298,-3.5345,-3.5371,-3.5527,-3.5446,-3.5449,-3.549,-3.5483,-3.5535,-3.5539,-3.5539,-3.5656,-3.5677,-3.5745,-3.5625,-3.5955,-3.5964,-3.5972,-3.6051,-3.6069,-3.6084,0,0,0,0,0,-3.5208,-3.5318,-3.5301,-3.5323,-3.5437,-3.5531,-3.5546,-3.5543,-3.5496,-3.5549,-3.5568,-3.5538,-3.5725,-3.5668,-3.5691,-3.5762,-3.5951,-3.5961,-3.5972,-3.6043,-3.6065,-3.6083,0,0,0,0,0,0,-3.5277,-3.5324,-3.5305,-3.5433,-3.5479,-3.5522,-3.5588,-3.5567,-3.5627,-3.5617,-3.5612,-3.5624,-3.5738,-3.5761,-3.5697,-3.5897,-3.583,-3.5846,-3.5877,-3.5898,-3.5914,-3.5906,-3.5632,0,0,0,0,0,-3.5307,-3.538,-3.5417,-3.5526,-3.555,-3.5565,-3.5606,-3.5601,-3.5647,-3.5666,-3.5694,-3.5741,-3.581,-3.5855,-3.5921,-3.6054,-3.6064,-3.6114,-3.6131,-3.6144,-3.6157,-3.6228,-3.6251,-3.6012,-3.6011,-3.6011,0,0,-3.537,-3.5404,-3.5451,-3.5541,-3.5575,-3.565,-3.5582,-3.5664,-3.572,-3.5679,-3.5784,-3.5807,-3.5858,-3.598,-3.6035,-3.6003,-3.6226,-3.6158,-3.6168,-3.6174,-3.6242,-3.6264,-3.6284,-3.6019,-3.6017,-3.6016,0,0,-3.5522,-3.5556,-3.565,-3.5686,-3.5739,-3.5749,-3.5772,-3.5818,-3.5831,-3.5937,-3.5908,-3.5973,-3.6093,-3.613,-3.6165,-3.6331,-3.6305,-3.6353,-3.6439,-3.6508,-3.6527,-3.6543,-3.6601,-3.6622,-3.6366,-3.6366,-3.6367,0,-3.5594,-3.5706,-3.5702,-3.5786,-3.5826,-3.5792,-3.5887,-3.5922,-3.5994,-3.6022,-3.5985,-3.6134,-3.6166,-3.6296,-3.6336,-3.6366,-3.6391,-3.6346,-3.6524,-3.6541,-3.6557,-3.6612,-3.6634,-3.6372,-3.6371,-3.6371,-3.637,0,-3.579,-3.5868,-3.5938,-3.6008,-3.6056,-3.6145,-3.6154,-3.6203,-3.6193,-3.6206,-3.6314,-3.6352,-3.6423,-3.6454,-3.6446,-3.6583,-3.6561,-3.6525,-3.6457,-3.6585,-3.6637,-3.6658,-3.6379,-3.6378,-3.6376,-3.6375,0,0,-3.5989,-3.6055,-3.608,-3.6111,-3.6167,-3.6227,-3.6315,-3.6385,-3.6426,-3.6477,-3.655,-3.6652,-3.6618,-3.6657,-3.6653,-3.6714,-3.6841,-3.6669,-3.667,-3.6699,-3.6993,-3.702,-3.7044,-3.6824,-3.6828,-3.6832,-3.6989,0,-3.6144,-3.6297,-3.6295,-3.6437,-3.6508,-3.6477,-3.6553,-3.6595,-3.661,-3.6673,-3.6689,-3.6761,-3.6711,-3.6735,-3.6794,-3.6813,-3.69,-3.6802,-3.6891,-3.6894,-3.6878,-3.7072,-3.71,-3.7246,-3.7009,-3.7012,-3.7015,0,-3.6346,-3.6403,-3.6551,-3.6595,-3.6625,-3.6694,-3.6757,-3.6818,-3.6865,-3.6871,-3.6915,-3.6901,-3.6989,-3.692,-3.7041,-3.6975,-3.7011,-3.7026,-3.7032,-3.7039,-3.6962,-3.7083,-3.7293,-3.7314,-3.7047,-3.7044,-3.7042,0,-3.6474,-3.6588,-3.6691,-3.6719,-3.6773,-3.6822,-3.6847,-3.689,-3.6932,-3.6987,-3.7014,-3.708,-3.7116,-3.7167,-3.717,-3.712,-3.7292,-3.7223,-3.7299,-3.7299,-3.7336,-3.7333,-3.7553,-3.7361,-3.7361,-3.736,-3.736,0,-3.6647,-3.6739,-3.6749,-3.6813,-3.6914,-3.6911,-3.7012,-3.7033,-3.7071,-3.7137,-3.7115,-3.7177,-3.7179,-3.7243,-3.7246,-3.7345,-3.7362,-3.7369,-3.7368,-3.737,-3.7369,-3.7393,-3.7383,-3.7366,-3.7365,-3.7364,-3.7363,0,-3.6808,-3.6819,-3.6929,-3.6971,-3.6984,-3.7057,-3.7093,-3.7153,-3.7165,-3.725,-3.7269,-3.7289,-3.7363,-3.7371,-3.7458,-3.746,-3.7579,-3.7569,-3.7564,-3.7561,-3.7636,-3.7628,-3.7878,-3.791,-3.7698,-3.77,-3.7702,0,-3.6917,-3.6987,-3.7036,-3.7079,-3.7107,-3.7176,-3.7218,-3.7218,-3.7263,-3.7322,-3.7375,-3.7446,-3.7504,-3.7624,-3.7645,-3.7711,-3.7701,-3.7784,-3.7711,-3.771,-3.7701,-3.7697,-3.7703,-3.7798,-3.7801,-3.7802,-3.7804,0,-3.7109,-3.7111,-3.7173,-3.7237,-3.7288,-3.7339,-3.7386,-3.7423,-3.7428,-3.748,-3.7555,-3.76,-3.7688,-3.7759,-3.7824,-3.7849,-3.7828,-3.7827,-3.7848,-3.785,-3.7843,-3.7847,-3.7601,-3.7821,-3.7819,-3.7818,-3.7817,-3.7816,-3.7247,-3.7307,-3.7351,-3.742,-3.7456,-3.75,-3.7559,-3.7578,-3.7641,-3.7712,-3.7708,-3.7791,-3.7835,-3.792,-3.795,-3.8015,-3.7987,-3.8017,-3.8025,-3.8032,-3.8039,-3.7834,-3.8027,-3.8026,-3.8026,-3.8025,-3.8025,0,-3.7437,-3.7463,-3.7528,-3.7594,-3.7649,-3.7624,-3.7674,-3.7722,-3.7795,-3.7838,-3.7895,-3.7981,-3.805,-3.8077,-3.8144,-3.8191,-3.8182,-3.8208,-3.8204,-3.821,-3.806,-3.8035,-3.8214,-3.8214,-3.8214,-3.8213,-3.8213,-3.8213,-3.7542,-3.7642,-3.7649,-3.7765,-3.7791,-3.7872,-3.7903,-3.7944,-3.7978,-3.8075,-3.8132,-3.8149,-3.8186,-3.8255,-3.8317,-3.8323,-3.8349,-3.8379,-3.8381,-3.824,-3.8221,-3.8203,-3.8179,-3.8384,-3.8385,-3.8525,-3.8526,-3.8527]},{"header":{"parameterUnit":"m.s-1","parameterCategory":1,"la1":30.2991,"la2":30.254,"lo1":-89.0895,"lo2":-89.0444,"dy":0.0017,"dx":0.0017,"nx":28,"ny":28,"refTime":"2025-06-01T09:00:00:Z","depth":0,"parameterNumber":3,"parameterNumberName":"V-component_of_WINDS"},"data":[0,0,0,0,0,0,0,0,0,0,0,0,0,0,0,0,0,0,0,0,0,0,0,0,0,0,0,0,0,0,0,0,0,0,0,0,0,0,0,0,0,0,0,0,0,0,0,0,0,0,0,0,0,0,0,0,0,0,0.6994,0.6994,0,0.6978,0.6978,0.6978,0.6946,0.6946,0.6945,0.6945,0.6929,0.6929,0.6929,0,0,0,0,0,0,0,0,0,0,0,0,0,0.6998,0.6998,0.6994,0.6994,0.6994,0.6978,0.6978,0.6978,0.6947,0.6946,0.6945,0.6944,0.6929,0.6929,0.6929,0,0,0,0,0,0,0,0,0,0,0,0,0,0.6991,0.6998,0.6994,0.6976,0.6974,0.6978,0.6978,0.6978,0.6947,0.6946,0.6945,0.6944,0.6929,0.6929,0.6929,0.6949,0,0,0.693,0.693,0,0,0,0,0,0,0,0,0.6991,0.6991,0.6979,0.6977,0.6975,0.6963,0.6974,0.6968,0.6947,0.6957,0.6945,0.6944,0.6941,0.694,0.6939,0.6949,0.6948,0.693,0.693,0.693,0.693,0,0,0,0,0,0,0,0.6992,0.6991,0.6988,0.6979,0.6977,0.6969,0.6967,0.6972,0.6955,0.6956,0.6954,0.6952,0.694,0.6939,0.6939,0.6948,0.693,0.693,0.693,0.6931,0.6972,0.6973,0,0,0,0,0,0,0.6995,0.6992,0.6988,0.6987,0.6981,0.697,0.6968,0.6968,0.6954,0.6951,0.6953,0.6951,0.6939,0.6939,0.6938,0.696,0.693,0.6931,0.6931,0.6971,0.6973,0.6974,0,0,0,0,0,0,0.6995,0.6995,0.6989,0.6989,0.6987,0.6971,0.6972,0.6968,0.6967,0.6952,0.6949,0.6956,0.6939,0.6938,0.6947,0.6959,0.6931,0.6931,0.697,0.6972,0.6973,0.7004,0,0,0,0,0,0,0.6995,0.6995,0.7002,0.6989,0.6988,0.6997,0.6972,0.6969,0.6968,0.6965,0.6954,0.6951,0.6938,0.6947,0.6947,0.6959,0.6931,0.6969,0.6971,0.6973,0.7002,0.7007,0.7011,0,0,0,0,0,0.6995,0.7012,0.7003,0.7002,0.6996,0.6998,0.6997,0.6982,0.6969,0.6976,0.6966,0.6951,0.6958,0.6948,0.6948,0.696,0.6968,0.697,0.6972,0.7,0.7006,0.7011,0,0,0,0,0,0,0.7027,0.701,0.6999,0.7012,0.7007,0.6993,0.7001,0.6988,0.6987,0.6984,0.6965,0.6963,0.6974,0.6968,0.6957,0.6979,0.6961,0.6963,0.6982,0.6987,0.6991,0.6992,0.6931,0,0,0,0,0,0.7035,0.7038,0.7023,0.7036,0.7033,0.7018,0.7018,0.7007,0.7001,0.6998,0.6989,0.6984,0.6985,0.6986,0.6986,0.7002,0.6999,0.701,0.7015,0.7018,0.702,0.7028,0.7032,0.6981,0.6981,0.6981,0,0,0.7052,0.7043,0.7046,0.7042,0.7036,0.7039,0.7016,0.7021,0.7023,0.6999,0.7006,0.7,0.6993,0.7005,0.701,0.7001,0.7034,0.7021,0.7024,0.7024,0.703,0.7035,0.704,0.6982,0.6982,0.6982,0,0,0.7085,0.7079,0.7088,0.7083,0.7075,0.7065,0.7068,0.7056,0.705,0.7058,0.704,0.7043,0.7045,0.704,0.7038,0.707,0.7056,0.7071,0.7093,0.71,0.7105,0.7108,0.7119,0.7123,0.7073,0.7073,0.7074,0,0.7107,0.7111,0.7095,0.71,0.7099,0.7078,0.7087,0.7083,0.7076,0.7076,0.7065,0.7067,0.7061,0.7072,0.708,0.7079,0.7081,0.7072,0.7105,0.7109,0.7112,0.7121,0.7126,0.7075,0.7075,0.7075,0.7075,0,0.7138,0.7142,0.715,0.7143,0.7143,0.7151,0.7136,0.7138,0.7127,0.7118,0.7126,0.7118,0.7116,0.7118,0.7107,0.7127,0.7121,0.7109,0.709,0.7119,0.7127,0.7131,0.7078,0.7077,0.7077,0.7076,0,0,0.7189,0.7173,0.7177,0.7173,0.7163,0.7166,0.7173,0.7171,0.7172,0.7169,0.7174,0.7176,0.7164,0.7162,0.7151,0.7158,0.7183,0.7144,0.7144,0.7151,0.7204,0.7213,0.7217,0.7174,0.7175,0.7176,0.7204,0,0.7218,0.7228,0.7214,0.7228,0.7231,0.7211,0.7217,0.7212,0.7204,0.7205,0.7197,0.7199,0.7183,0.7182,0.7188,0.7179,0.7193,0.7177,0.7178,0.7179,0.7179,0.7222,0.7231,0.7258,0.7208,0.7208,0.7209,0,0.7253,0.7251,0.7265,0.7254,0.7255,0.726,0.7257,0.7259,0.7253,0.7247,0.7245,0.7232,0.7238,0.7221,0.7229,0.7218,0.7219,0.7214,0.7215,0.7213,0.7194,0.722,0.7267,0.727,0.7214,0.7214,0.7213,0,0.7287,0.7288,0.7296,0.7294,0.7282,0.7286,0.7282,0.7275,0.7274,0.7272,0.7272,0.7271,0.727,0.7269,0.7256,0.7245,0.7266,0.7248,0.726,0.726,0.7264,0.7264,0.731,0.7267,0.7267,0.7267,0.7266,0,0.7321,0.733,0.7311,0.7316,0.7325,0.731,0.732,0.7313,0.7307,0.7311,0.7294,0.7298,0.7281,0.7283,0.7273,0.7281,0.7281,0.7276,0.7273,0.7277,0.7277,0.7275,0.7273,0.7268,0.7267,0.7267,0.7267,0,0.7359,0.7347,0.7355,0.7343,0.7341,0.7348,0.7338,0.7342,0.7334,0.7339,0.7339,0.7325,0.7327,0.7314,0.7313,0.7307,0.7319,0.7313,0.7321,0.7318,0.7331,0.733,0.7377,0.7382,0.7337,0.7337,0.7338,0,0.7381,0.7387,0.7377,0.7378,0.7374,0.7376,0.7375,0.7361,0.7361,0.7355,0.736,0.736,0.7359,0.7362,0.7353,0.7352,0.7345,0.7362,0.7345,0.7348,0.7344,0.7343,0.7344,0.7365,0.7366,0.7366,0.7366,0,0.742,0.7414,0.7414,0.7412,0.7412,0.7409,0.7406,0.7408,0.7392,0.7394,0.7395,0.7394,0.7393,0.7393,0.7391,0.7386,0.7374,0.7372,0.7375,0.7378,0.7381,0.7378,0.7329,0.7371,0.737,0.737,0.737,0.7369,0.745,0.7454,0.7447,0.7448,0.7444,0.7442,0.7445,0.7437,0.7438,0.7435,0.7427,0.743,0.7424,0.7419,0.7416,0.7418,0.741,0.7414,0.7415,0.7416,0.7418,0.7382,0.7418,0.7418,0.7418,0.7417,0.7417,0,0.7487,0.7482,0.7482,0.7478,0.7479,0.7467,0.7463,0.7465,0.7467,0.7463,0.7462,0.7464,0.7464,0.7455,0.7454,0.7457,0.7451,0.7457,0.7456,0.7455,0.7425,0.7423,0.7462,0.7462,0.7462,0.7462,0.7462,0.7462,0.7506,0.7513,0.7506,0.7511,0.7506,0.7508,0.7507,0.7505,0.7501,0.7503,0.7503,0.7497,0.7491,0.749,0.749,0.7487,0.7487,0.7495,0.749,0.7462,0.7457,0.7453,0.745,0.7495,0.7495,0.7519,0.752,0.752]}]]